RH
89 75 72 73 78 75 74 76 72 67 67 66 62 55 55 71 72 70 70 59 53 56 63 63 82 68 51 51 47 49 45 52 53 67 37 33 28 27 34 64 66 66 65
78 80 79 76 74 76 75 77 72 68 68 67 64 56 62 72 73 63 65 57 61 79 88 90 86 81 85 52 43 40 75 85 80 79 80 74 42 34 42 68 58 64 74
84 82 88 87 76 80 71 73 72 69 70 69 67 59 65 67 68 57 55 57 66 87 91 92 90 90 86 74 66 46 33 74 78 82 82 86 74 73 84 90 83 77 87
82 86 81 86 82 77 74 73 72 70 70 71 70 62 65 66 59 56 62 62 48 73 69 88 91 90 89 75 66 54 23 53 80 81 84 86 89 93 93 88 87 88 86
77 84 84 85 83 78 75 74 72 71 69 70 70 66 66 67 69 68 78 56 40 44 43 29 47 85 87 80 55 29 23 36 68 78 96 78 90 88 89 89 89 83 69
78 83 82 85 80 81 81 76 72 68 64 65 68 67 68 68 71 81 81 37 68 77 71 48 32 41 34 42 61 53 36 34 64 69 76 82 84 69 69 76 81 81 71
78 82 83 88 74 67 76 70 65 63 60 65 63 66 67 67 79 75 83 73 77 85 72 52 31 36 29 72 67 41 31 50 76 76 73 78 66 51 43 39 50 65 68
74 80 84 87 73 75 67 61 58 58 59 58 60 63 56 64 79 83 89 89 87 85 70 44 37 36 78 83 76 70 78 88 82 81 83 81 70 77 57 40 50 67 72
76 84 87 75 86 82 81 74 59 56 58 57 57 55 63 73 88 90 90 90 88 83 67 44 42 67 83 76 79 80 79 92 78 87 81 78 67 86 87 81 70 73 70
78 85 87 78 76 88 86 89 86 60 60 63 60 64 72 81 88 92 92 91 86 80 70 46 44 78 78 78 74 81 79 77 83 81 78 69 72 98 91 89 89 92 91
74 85 87 86 77 82 80 86 93 89 68 59 66 76 80 82 88 89 89 91 84 78 73 37 45 80 78 78 76 78 82 80 82 80 81 74 74 97 99 98 97 98 82
70 85 78 84 84 79 79 80 82 81 93 66 65 79 86 89 89 86 90 82 81 64 58 29 51 84 79 82 83 80 79 84 80 79 83 80 73 79 94 97 100 88 84
32 48 50 81 80 79 78 75 78 88 80 89 67 73 85 92 93 95 88 90 69 42 29 24 72 92 88 84 85 82 74 75 76 75 81 83 80 76 83 83 83 87 88
42 41 45 43 73 79 84 80 78 81 90 90 87 81 84 94 100 91 88 91 56 34 30 27 72 89 92 82 86 72 72 69 76 76 82 84 84 88 83 93 96 97 95
36 43 43 45 47 54 70 78 82 76 64 79 89 92 87 93 93 99 85 83 54 52 36 40 65 77 80 84 85 72 75 73 72 72 78 80 85 92 86 93 98 98 97
32 34 44 44 47 46 38 51 72 70 72 69 70 84 86 90 91 98 92 81 71 69 71 61 81 82 86 90 79 78 78 75 76 76 81 80 87 88 94 90 90 94 98
32 35 41 45 48 45 38 32 30 58 60 74 74 73 84 92 94 99 92 85 80 77 85 83 86 88 87 82 87 89 76 75 75 79 79 82 88 87 85 88 88 90 94
37 37 41 46 51 46 37 32 31 29 46 63 77 85 79 92 92 100 96 90 84 81 80 82 84 89 84 80 84 82 79 76 74 80 81 86 81 84 85 88 87 91 94
48 46 48 52 50 39 33 30 30 29 50 56 65 76 83 88 98 97 100 97 86 82 83 82 84 92 82 83 86 84 80 83 81 81 79 82 84 81 82 84 93 81 87
64 68 62 56 56 53 38 34 35 36 61 74 58 65 82 89 98 98 100 100 93 84 84 86 84 90 82 80 84 80 80 81 84 83 82 87 84 81 81 84 83 81 98
84 98 76 80 68 58 53 45 55 48 62 79 76 58 83 80 90 96 97 99 100 89 88 91 93 94 89 81 86 85 86 85 93 88 90 90 84 83 81 84 84 79 94
98 99 98 88 77 70 65 60 65 64 61 68 80 67 57 80 87 80 85 94 100 99 93 98 90 95 92 85 87 91 100 94 89 90 90 88 80 83 86 80 84 78 99
98 100 99 99 93 81 83 81 90 96 84 82 80 77 79 74 83 92 86 83 89 100 95 94 99 93 89 88 85 83 98 90 85 92 91 90 88 90 87 89 85 84 83
100 99 99 99 98 93 93 92 94 95 87 85 85 87 98 96 91 81 86 86 81 93 99 96 96 96 93 84 92 90 80 75 79 90 88 92 92 89 89 87 90 87 86
100 100 100 100 99 96 98 94 95 95 98 99 99 99 99 100 96 88 86 88 83 95 99 100 97 96 93 90 82 82 88 90 78 71 77 85 92 92 89 91 94 87 89
100 100 100 100 100 100 100 99 100 100 99 99 98 99 99 100 100 88 91 87 88 97 95 86 92 98 97 95 95 89 85 89 85 78 74 73 80 84 84 90 90 88 92
Wind_Speed
10 8 17 17 17 17 17 15 14 14 13 11 9 9 11 14 15 13 13 12 11 11 11 12 11 11 12 12 12 11 10 10 11 12 11 12 13 14 14 13 11 13 12
11 11 18 17 17 18 17 15 15 13 13 11 10 9 12 14 12 12 11 11 10 11 11 11 9 11 16 14 13 10 9 10 10 10 9 11 11 12 13 10 12 13 13
8 9 18 16 16 17 17 15 14 13 14 12 10 10 12 13 11 10 11 11 11 9 8 10 14 14 15 11 7 5 6 8 11 11 10 11 11 11 12 12 15 14 14
13 10 14 17 16 17 17 16 13 14 14 12 11 10 13 11 10 9 10 12 12 10 9 10 11 13 9 5 3 2 7 11 12 12 8 8 14 14 15 15 14 13 11
14 10 9 17 16 16 16 15 14 13 13 13 11 12 13 12 10 9 13 14 13 8 5 4 7 8 7 5 3 4 10 15 14 12 11 5 8 10 11 11 10 10 8
12 12 11 16 17 17 17 17 16 15 14 14 13 13 13 12 12 13 15 18 13 8 5 3 5 7 5 7 6 6 12 17 16 13 9 8 6 7 7 7 5 4 3
13 11 11 16 18 18 17 16 16 16 15 15 14 13 13 13 13 15 17 15 12 8 5 4 5 6 10 10 8 11 19 22 16 12 9 10 3 5 5 7 6 4 5
13 11 10 16 18 18 17 17 16 17 17 16 15 14 14 14 14 15 15 12 9 9 6 5 5 12 12 13 10 15 18 21 15 12 9 6 7 7 8 8 9 7 8
14 13 13 13 19 19 17 17 16 17 18 18 17 16 15 14 15 15 15 11 7 9 8 7 11 15 14 11 12 14 14 16 12 10 7 8 10 8 13 14 14 12 10
13 16 11 9 19 19 19 19 18 17 17 18 17 17 17 16 17 16 15 12 9 9 10 8 15 17 15 14 12 14 14 13 10 11 9 8 13 12 14 15 16 16 14
14 16 16 13 11 13 17 19 19 19 19 19 19 18 19 18 18 16 15 14 12 11 13 12 18 19 15 13 12 13 13 11 9 6 8 9 8 11 17 18 17 13 8
18 19 20 20 16 14 14 16 16 20 22 23 22 21 21 19 20 17 16 15 13 12 14 16 22 19 19 15 13 11 17 10 7 6 8 10 8 12 11 12 11 10 7
18 18 20 21 24 19 20 20 21 22 24 24 25 25 23 21 18 17 16 14 14 14 14 20 26 20 18 15 14 11 19 11 10 7 10 12 11 13 13 11 11 9 10
25 23 20 21 26 29 24 20 23 22 23 26 27 26 25 25 22 22 18 16 16 13 17 22 28 21 15 14 15 14 14 13 12 9 8 9 11 10 17 11 10 10 10
29 29 28 24 27 28 31 28 19 23 22 25 30 30 29 28 28 26 22 16 15 12 19 24 23 19 18 16 15 22 17 15 12 10 10 8 11 11 14 13 9 7 11
28 30 33 34 33 31 30 30 29 19 22 23 25 33 33 31 31 29 24 17 14 14 18 20 18 20 23 18 15 17 21 19 11 9 7 10 12 10 7 11 8 9 11
30 29 32 35 39 37 34 30 30 29 20 23 26 27 32 34 35 34 26 19 16 16 22 20 21 21 22 18 17 17 21 20 11 9 8 11 11 10 9 11 11 11 7
29 29 29 33 36 36 37 38 38 37 34 30 26 23 27 35 37 34 31 24 20 20 23 25 23 20 20 21 19 11 14 15 14 11 10 10 11 11 11 12 12 11 8
19 25 25 23 31 30 30 31 32 35 35 35 35 28 24 32 35 35 35 29 26 26 27 26 26 24 22 21 18 18 15 14 16 15 13 11 15 14 15 14 14 9 13
12 18 23 27 28 30 28 29 29 31 33 27 34 34 27 26 31 31 37 33 30 30 31 27 28 28 22 25 19 20 17 15 13 15 14 12 16 15 16 15 16 15 16
12 15 22 18 24 25 29 30 33 34 36 29 29 27 31 28 29 29 30 32 33 34 32 31 28 25 25 26 25 23 22 21 19 17 14 17 19 18 18 18 18 18 19
12 12 16 19 18 20 26 28 33 35 37 37 32 27 26 32 31 29 30 28 32 33 35 32 30 29 29 27 31 27 20 19 21 19 15 15 17 19 20 20 20 20 21
10 11 10 9 17 19 22 23 27 30 32 31 31 27 25 25 32 33 29 28 27 31 34 35 34 32 35 35 32 24 15 13 24 22 20 18 20 21 22 23 23 23 25
3 2 10 9 13 19 20 24 27 31 30 29 30 27 23 24 25 29 29 29 31 29 33 34 34 33 32 36 37 37 25 16 20 16 28 26 22 24 26 26 27 27 27
11 10 6 10 10 16 21 24 25 23 26 22 20 22 25 26 24 24 26 28 28 25 28 31 35 34 39 33 35 36 39 28 21 19 24 35 31 27 27 29 30 31 30
23 21 17 16 14 16 15 19 22 19 20 22 21 20 20 21 23 22 25 25 25 25 23 25 29 34 36 38 37 37 39 38 30 29 22 26 36 34 32 32 34 33 31
Wind_Direction
204 177 167 165 162 162 165 163 157 158 157 152 138 134 137 137 135 132 130 126 126 130 131 134 133 131 133 127 123 121 128 129 126 118 119 115 117 119 119 120 119 107 104
214 187 172 171 168 168 171 168 161 162 163 161 154 148 147 145 146 143 141 135 133 136 148 152 148 140 133 123 108 110 115 122 121 118 124 121 122 124 124 123 121 117 116
211 182 173 176 172 171 177 175 168 170 170 173 168 161 157 155 157 155 154 147 151 154 129 158 151 146 145 132 123 112 140 125 116 113 120 122 125 129 136 132 129 122 120
193 208 191 181 178 177 179 182 178 175 179 181 182 169 167 167 169 169 168 164 160 143 129 132 143 147 153 163 170 193 167 156 114 89 75 119 121 122 125 123 118 119 110
194 202 212 186 184 180 183 185 186 185 185 185 182 177 177 178 177 176 169 165 158 147 142 162 194 206 219 227 226 198 173 162 129 105 126 183 153 135 119 124 126 118 101
187 198 217 197 191 187 185 188 190 189 189 190 186 185 186 189 185 177 173 168 165 173 190 201 225 215 216 174 138 135 156 150 138 129 175 160 192 170 159 157 143 128 85
182 204 202 206 200 197 195 190 194 194 195 195 193 192 196 197 194 190 179 174 192 206 218 225 208 190 159 140 130 119 137 138 136 147 172 192 204 154 171 197 193 172 121
188 207 219 213 201 196 196 198 196 196 197 200 200 200 204 204 197 188 185 194 218 217 222 217 187 158 149 147 144 140 144 148 149 159 146 152 162 127 119 134 142 149 141
187 177 230 212 203 201 201 200 200 199 197 198 200 205 210 202 197 190 195 209 216 216 208 201 175 165 157 157 141 145 147 129 150 151 156 162 140 139 129 124 132 135 143
198 183 215 216 209 207 206 204 205 205 203 200 200 203 207 207 203 201 213 219 225 225 213 208 181 175 173 158 160 152 155 154 157 164 155 134 153 111 139 139 137 137 137
205 202 187 217 229 223 223 217 209 208 208 207 205 205 207 210 209 212 217 224 236 237 215 210 181 179 181 176 171 171 164 169 186 179 153 149 185 141 131 136 138 139 150
207 209 205 195 217 223 223 235 230 223 212 209 210 210 209 212 212 215 220 231 234 225 217 198 179 183 191 189 182 186 177 179 195 200 191 182 198 182 159 149 150 163 179
233 235 230 208 203 208 210 223 228 230 223 216 212 214 211 212 211 211 221 227 232 219 203 184 177 184 183 190 184 188 172 181 229 226 208 199 198 209 204 207 218 223 226
235 228 229 232 215 208 202 219 220 233 226 218 217 216 210 207 204 219 224 240 229 216 189 183 179 180 178 196 199 163 150 175 200 208 203 207 203 212 205 214 208 209 206
240 231 225 226 222 220 213 200 217 225 239 231 218 213 215 206 207 208 219 233 216 197 181 174 181 173 185 196 177 168 165 174 216 233 239 241 208 182 192 210 203 183 182
242 238 232 224 222 220 216 212 203 215 231 236 229 222 216 212 211 209 215 219 211 189 183 182 184 189 199 194 193 189 170 166 186 209 207 182 181 178 174 174 169 172 167
248 241 236 235 228 229 223 224 221 211 223 230 225 226 224 214 212 206 201 209 202 192 187 196 193 205 208 204 194 190 191 169 204 203 201 184 191 192 176 170 176 180 177
247 241 238 233 232 234 233 234 235 236 221 227 232 222 223 217 214 213 205 205 200 198 188 206 201 203 203 194 194 197 179 180 207 216 212 207 198 189 179 177 193 196 213
223 224 221 226 234 232 226 231 231 228 220 223 226 227 216 217 217 216 210 210 202 198 201 205 199 207 193 189 195 183 190 183 204 220 222 218 199 192 190 193 196 204 171
230 236 230 226 231 234 229 224 225 217 212 222 223 221 219 218 219 222 212 211 212 193 203 206 209 210 197 190 188 187 190 194 209 225 225 216 204 202 205 208 198 193 198
235 247 239 238 231 232 228 219 215 213 209 213 226 224 212 216 215 220 216 217 217 197 202 203 206 207 189 195 191 191 201 202 205 223 224 232 217 213 215 217 209 210 207
254 255 243 224 217 228 218 219 210 210 211 212 217 220 216 209 216 219 221 222 220 216 203 206 205 196 192 196 198 198 187 204 217 222 223 225 214 215 219 221 217 217 210
275 257 243 230 195 200 203 208 203 206 209 210 212 214 212 209 210 217 221 223 228 220 218 211 211 202 195 201 210 195 182 204 210 217 223 221 218 218 222 224 226 224 228
344 238 226 215 198 193 195 192 200 209 206 206 203 204 203 202 207 210 217 222 225 225 221 219 216 214 215 204 207 216 221 209 196 207 221 227 224 222 222 227 229 232 234
41 67 128 170 191 200 195 197 193 197 198 191 193 197 201 202 204 201 213 216 224 223 224 221 219 221 220 224 220 218 219 225 224 213 211 217 229 229 222 224 230 236 238
46 52 68 108 135 165 181 190 191 193 181 179 183 187 197 203 204 206 210 212 215 216 223 224 226 223 220 231 231 228 223 220 216 215 218 224 225 229 231 227 227 232 236